Weather History for KPSC - June, 2014

Change the Weather History Date:

Monday, June 23, 2014

  Actual Average Record
Temperature  
Mean Temperature 72 °F 69 °F  
Max Temperature 94 °F 85 °F 110 °F (1992)
Min Temperature 50 °F 53 °F 41 °F (2009)
Degree Days  
Heating Degree Days 0 1  
Month to date heating degree days 18 31  
Since 1 June heating degree days 18 31  
Since 1 July heating degree days 5225 5021  
Cooling Degree Days 7 4  
Month to date cooling degree days 71 71  
Year to date cooling degree days 105 104  
Since 1 June cooling degree days 71 71  
Growing Degree Days 22 (Base 50)    
Moisture  
Dew Point 43 °F    
Average Humidity 48    
Maximum Humidity 83    
Minimum Humidity 12    
Precipitation  
Precipitation 0.00 in 0.02 in 0.13 in (1969)
Month to date precipitation 0.12 0.60  
Year to date precipitation 2.50 4.85  
Snow  
Snow 0.00 in - - ()
Snow Depth 0.00 in    
Sea Level Pressure  
Sea Level Pressure 29.88 in    
Wind  
Wind Speed 3 mph (ENE)    
Max Wind Speed 20 mph    
Max Gust Speed 25 mph    
Visibility 10 miles    
Events      
T = Trace of Precipitation, MM = Missing Value Source: NWS Daily Summary

Daily Weather History Graph

Daily Weather History Graph

Search for Another Location

Airport or City:

Trip Planner

Search our weather history database for the weather conditions in past years. The results will help you decide how hot, cold, wet, or windy it might be!

Date:

Astronomy

Jun. 23, 2014 Rise Set
Actual Time 5:05 AM PDT 8:52 PM PDT
Civil Twilight 4:26 AM PDT 9:31 PM PDT
Nautical Twilight 3:33 AM PDT 10:23 PM PDT
Astronomical Twilight 2:18 AM PDT 11:38 PM PDT
Moon 2:43 AM PDT (6/23) 5:30 PM PDT (6/23)
Length of Visible Light 17h 05m
Length of Day
15h 47m
Waning Crescent, 12% of the Moon is Illuminated
Jun 23
Waning Crescent
Jun 27
New
Jul 5
First Quarter
Jul 12
Full
Jul 18
Last Quarter

Hourly Weather History & Observations

Time (PDT) Temp. Dew Point Humidity Pressure Visibility Wind Dir Wind Speed Gust Speed Precip Events Conditions
12:53 AM 57.9 °F 48.0 °F 70% 29.91 in 10.0 mi Calm Calm - N/A   Clear
1:53 AM 57.9 °F 46.0 °F 65% 29.90 in 10.0 mi East 4.6 mph - N/A   Clear
2:53 AM 52.0 °F 46.0 °F 80% 29.91 in 10.0 mi North 3.5 mph - N/A   Clear
3:53 AM 52.0 °F 46.0 °F 80% 29.91 in 10.0 mi NNE 3.5 mph - N/A   Clear
4:53 AM 50.0 °F 45.0 °F 83% 29.92 in 10.0 mi East 3.5 mph - N/A   Clear
5:53 AM 52.0 °F 44.1 °F 74% 29.93 in 10.0 mi Calm Calm - N/A   Clear
6:53 AM 57.9 °F 48.0 °F 70% 29.94 in 10.0 mi Calm Calm - N/A   Clear
7:53 AM 64.9 °F 45.0 °F 48% 29.95 in 10.0 mi SE 4.6 mph - N/A   Clear
8:53 AM 71.1 °F 45.0 °F 39% 29.95 in 10.0 mi Calm Calm - N/A   Clear
9:53 AM 78.1 °F 46.0 °F 32% 29.94 in 10.0 mi NNW 4.6 mph - N/A   Clear
10:53 AM 81.0 °F 45.0 °F 28% 29.94 in 10.0 mi NW 4.6 mph - N/A   Clear
11:53 AM 86.0 °F 42.1 °F 21% 29.92 in 10.0 mi East 3.5 mph - N/A   Clear
3:53 PM 93.0 °F 39.9 °F 16% 29.83 in 10.0 mi Variable 5.8 mph - N/A   Clear
4:53 PM 91.9 °F 34.0 °F 13% 29.82 in 10.0 mi East 8.1 mph - N/A   Clear
5:53 PM 90.0 °F 30.9 °F 12% 29.81 in 10.0 mi ENE 6.9 mph - N/A   Clear
6:53 PM 90.0 °F 30.0 °F 12% 29.80 in 10.0 mi East 6.9 mph - N/A   Clear
7:53 PM 88.0 °F 36.0 °F 16% 29.80 in 10.0 mi East 3.5 mph - N/A   Clear
8:53 PM 86.0 °F 37.9 °F 18% 29.80 in 10.0 mi SSE 5.8 mph - N/A   Clear
9:53 PM 78.1 °F 46.0 °F 32% 29.82 in 10.0 mi Calm Calm - N/A   Clear
10:53 PM 79.0 °F 48.0 °F 34% 29.84 in 10.0 mi WNW 11.5 mph - N/A   Clear
11:53 PM 78.1 °F 48.9 °F 36% 29.86 in 10.0 mi WNW 12.7 mph - N/A   Clear